Weather History for Walnut Ridge, AR

Change the Weather History Date:

Sunday, July 21, 2013

  Actual Average Record
Temperature  
Mean Temperature 80 °F -  
Max Temperature 87 °F 87 °F 98 °F (2006)
Min Temperature 73 °F 70 °F 64 °F (2007)
Cooling Degree Days 15    
Growing Degree Days 30 (Base 50)    
Moisture  
Dew Point 73 °F    
Average Humidity 87    
Maximum Humidity 94    
Minimum Humidity 66    
Precipitation  
Precipitation 0.14 in - - ()
Sea Level Pressure  
Sea Level Pressure 29.92 in    
Wind  
Wind Speed 4 mph (SSE)    
Max Wind Speed 20 mph    
Max Gust Speed 30 mph    
Visibility 10 miles    
Events Thunderstorm    
Averages and records for this station are not official NWS values.
T = Trace of Precipitation, MM = Missing Value Source: NWS Daily Summary

Daily Weather History Graph

Daily Weather History Graph

Search for Another Location

Airport:

Trip Planner

Search our weather history database for the weather conditions in past years. The results will help you decide how hot, cold, wet, or windy it might be!

Date:

Astronomy

Jul. 21, 2013 Rise Set
Actual Time 6:02 AM CDT 8:17 PM CDT
Civil Twilight 5:33 AM CDT 8:46 PM CDT
Nautical Twilight 4:57 AM CDT 9:21 PM CDT
Astronomical Twilight 4:18 AM CDT 10:00 PM CDT
Moon 7:16 PM CDT (7/21) 4:48 AM CDT (7/21)
Length of Visible Light 15h 12m
Length of Day
14h 14m
Waxing Gibbous, 98% of the Moon is Illuminated
Jul 21
Waxing Gibbous
Jul 22
Full
Jul 29
Last Quarter
Aug 6
New
Aug 14
First Quarter

Hourly Weather History & Observations

Time (CDT) Temp. Heat Index Dew Point Humidity Pressure Visibility Wind Dir Wind Speed Gust Speed Precip Events Conditions
12:15 AM 73.4 °F - 71.6 °F 94% 29.93 in 10.0 mi ENE 4.6 mph - N/A   Clear
12:35 AM - - - N/A% 29.94 in 10.0 mi NE 4.6 mph - N/A   Scattered Clouds
12:55 AM - - - N/A% 29.94 in 10.0 mi NE 5.8 mph - N/A   Overcast
1:15 AM - - - N/A% 29.94 in 10.0 mi North 4.6 mph - N/A   Mostly Cloudy
1:35 AM - - - N/A% 29.93 in 10.0 mi Calm Calm - N/A   Partly Cloudy
1:55 AM - - - N/A% 29.92 in 10.0 mi Calm Calm - N/A   Clear
2:15 AM - - - N/A% 29.92 in 10.0 mi NNW 4.6 mph - N/A   Clear
2:35 AM - - - N/A% 29.92 in 10.0 mi NW 6.9 mph - N/A   Clear
2:56 AM - - - N/A% 29.91 in 10.0 mi West 4.6 mph - N/A   Clear
3:15 AM - - - N/A% 29.91 in 10.0 mi Calm Calm - N/A   Clear
3:35 AM - - - N/A% 29.90 in 10.0 mi NNW 3.5 mph - N/A   Clear
3:55 AM - - - N/A% 29.90 in 10.0 mi SW 4.6 mph - N/A   Clear
4:15 AM - - - N/A% 29.91 in 10.0 mi SW 3.5 mph - N/A   Clear
4:35 AM - - - N/A% 29.92 in 9.0 mi Calm Calm - N/A   Clear
4:55 AM - - - N/A% 29.92 in 10.0 mi Calm Calm - N/A   Clear
5:15 AM - - - N/A% 29.91 in 10.0 mi Calm Calm - N/A   Clear
5:35 AM - - - N/A% 29.92 in 10.0 mi South 4.6 mph - N/A   Clear
5:55 AM - - - N/A% 29.93 in 10.0 mi South 3.5 mph - N/A   Clear
6:15 AM - - - N/A% 29.93 in 10.0 mi SSW 3.5 mph - N/A   Clear
6:35 AM - - - N/A% 29.94 in 10.0 mi Calm Calm - N/A   Clear
6:55 AM - - - N/A% 29.94 in 10.0 mi Calm Calm - N/A   Clear
7:15 AM - - - N/A% 29.94 in 10.0 mi Calm Calm - N/A   Clear
7:35 AM - - - N/A% 29.95 in 10.0 mi Calm Calm - N/A   Clear
7:55 AM - - - N/A% 29.95 in 10.0 mi South 4.6 mph - N/A   Partly Cloudy
8:16 AM - - - N/A% 29.95 in 10.0 mi South 5.8 mph - N/A   Scattered Clouds
8:35 AM - - - N/A% 29.95 in 10.0 mi South 5.8 mph - N/A   Scattered Clouds
8:55 AM - - - N/A% 29.95 in 9.0 mi South 4.6 mph - N/A   Scattered Clouds
9:15 AM - - - N/A% 29.95 in 9.0 mi SSW 4.6 mph - N/A   Partly Cloudy
9:35 AM - - - N/A% 29.95 in 10.0 mi SSW 3.5 mph - N/A   Clear
10:16 AM - - - N/A% 29.96 in 10.0 mi SW 3.5 mph - N/A   Clear
10:35 AM - - - N/A% 29.96 in 10.0 mi SSW 4.6 mph - N/A   Partly Cloudy
10:55 AM - - - N/A% 29.96 in 10.0 mi SSW 10.4 mph - N/A   Partly Cloudy
11:15 AM - - - N/A% 29.95 in 9.0 mi South 8.1 mph - 0.04 in   Mostly Cloudy
11:35 AM - - - N/A% 29.96 in 10.0 mi SSW 5.8 mph - 0.04 in   Scattered Clouds
11:55 AM - - - N/A% 29.95 in 10.0 mi WSW 5.8 mph - 0.04 in   Clear
12:15 PM 80.6 °F 85.4 °F 73.4 °F 79% 29.95 in 10.0 mi Calm Calm - N/A   Clear
12:35 PM 82.4 °F 88.2 °F 73.4 °F 74% 29.94 in 10.0 mi South 4.6 mph - N/A   Clear
12:55 PM 84.2 °F 92.3 °F 75.2 °F 74% 29.93 in 10.0 mi SE 3.5 mph - N/A   Mostly Cloudy
1:15 PM 84.2 °F 92.3 °F 75.2 °F 74% 29.92 in 10.0 mi South 4.6 mph - N/A   Scattered Clouds
1:35 PM 86.0 °F 93.4 °F 73.4 °F 66% 29.90 in 10.0 mi NNW 3.5 mph - N/A   Partly Cloudy
1:55 PM 87.8 °F 97.6 °F 75.2 °F 66% 29.89 in 10.0 mi SE 3.5 mph - N/A Thunderstorm Scattered Clouds
2:15 PM 86.0 °F 93.4 °F 73.4 °F 66% 29.89 in 9.0 mi NNE 4.6 mph - N/A Thunderstorm Thunderstorm
2:35 PM 78.8 °F - 69.8 °F 74% 29.91 in 7.0 mi West 19.6 mph 29.9 mph N/A Thunderstorm Thunderstorm
2:55 PM 73.4 °F - 71.6 °F 94% 29.91 in 9.0 mi North 9.2 mph 19.6 mph N/A Thunderstorm Thunderstorm
3:35 PM 73.4 °F - 71.6 °F 94% 29.90 in 9.0 mi East 5.8 mph - N/A   Mostly Cloudy
3:56 PM 75.2 °F - 71.6 °F 89% 29.90 in 10.0 mi NW 8.1 mph - N/A   Scattered Clouds
4:15 PM 75.2 °F - 71.6 °F 89% 29.90 in 10.0 mi North 5.8 mph - N/A   Mostly Cloudy
4:35 PM 75.2 °F - 73.4 °F 94% 29.90 in 10.0 mi NNW 8.1 mph - N/A   Mostly Cloudy
4:56 PM 75.2 °F - 73.4 °F 94% 29.90 in 10.0 mi NNW 9.2 mph - N/A   Mostly Cloudy
5:15 PM 75.2 °F - 71.6 °F 89% 29.90 in 10.0 mi North 5.8 mph - N/A   Mostly Cloudy
5:35 PM 75.2 °F - 71.6 °F 89% 29.91 in 10.0 mi NNE 3.5 mph - N/A   Partly Cloudy
5:55 PM 75.2 °F - 71.6 °F 89% 29.90 in 10.0 mi Calm Calm - N/A   Scattered Clouds
6:15 PM 75.2 °F - 71.6 °F 89% 29.89 in 10.0 mi East 3.5 mph - N/A   Partly Cloudy
6:56 PM 75.2 °F - 71.6 °F 89% 29.88 in 10.0 mi ENE 4.6 mph - N/A   Clear
7:15 PM 75.2 °F - 71.6 °F 89% 29.88 in 10.0 mi East 3.5 mph - N/A   Clear
7:35 PM 75.2 °F - 71.6 °F 89% 29.88 in 10.0 mi East 3.5 mph - N/A   Clear
7:55 PM 75.2 °F - 71.6 °F 89% 29.88 in 10.0 mi SE 3.5 mph - N/A   Clear
8:15 PM 75.2 °F - 73.4 °F 94% 29.88 in 10.0 mi Calm Calm - N/A   Clear
8:35 PM 75.2 °F - 73.4 °F 94% 29.89 in 10.0 mi SSE 4.6 mph - N/A   Scattered Clouds
8:55 PM 75.2 °F - 73.4 °F 94% 29.90 in 10.0 mi South 6.9 mph - N/A   Mostly Cloudy
9:15 PM 75.2 °F - 73.4 °F 94% 29.90 in 9.0 mi South 5.8 mph - N/A   Mostly Cloudy
9:35 PM 75.2 °F - 73.4 °F 94% 29.88 in 5.0 mi SE 8.1 mph - N/A   Mostly Cloudy
9:55 PM 75.2 °F - 73.4 °F 94% 29.88 in 10.0 mi ESE 4.6 mph - 0.10 in   Mostly Cloudy
10:15 PM 75.2 °F - 73.4 °F 94% 29.88 in 8.0 mi SE 6.9 mph - N/A   Overcast
10:35 PM 75.2 °F - 73.4 °F 94% 29.88 in 10.0 mi SSE 5.8 mph - N/A   Overcast
10:56 PM 75.2 °F - 73.4 °F 94% 29.87 in 10.0 mi SE 5.8 mph - N/A   Scattered Clouds
11:15 PM 75.2 °F - 73.4 °F 94% 29.88 in 9.0 mi SSE 4.6 mph - N/A   Mostly Cloudy
11:35 PM 75.2 °F - 73.4 °F 94% 29.88 in 10.0 mi Calm Calm - N/A   Mostly Cloudy
11:55 PM 75.2 °F - 73.4 °F 94% 29.88 in 7.0 mi NNE 4.6 mph - N/A   Mostly Cloudy